STARLINK-3288

decayed
NORAD ID: 50160 Int'l Des: 2021-125 Owner: SPXS Country: US Constellation: starlink
LEOCIRCULAR

关于 STARLINK-3288

正在加载描述...

高度历史

Altitude vs Time

uPlot chart will show altitude changes over time

两行轨道根数

1 50160U 21125E 24356.33474566 .17061454 12531-4 33718-3 0 9990
2 50160 53.1895 66.8203 0001266 161.0675 243.1168 16.47276262169364
Epoch: Dec 21, 2024 • Age: 6463 hours

当前状态

Position data unavailable
发射日期 Dec 18, 2021
运行时间 3.7 years
衰减日期 Dec 21, 2024
类型 internet

技术详情

分类 Payload
质量 290.00 kg
干质量 270.00 kg
总质量 290.00 kg
长度 0.20 m
直径 2.80 m
跨度 9.00 m
形状 Box + pan
制造商 SPXS
平台类型 Starlink
阶段状态 Unknown Transfer Status
所有者/国家 SPXS/US

大型星座

Loading constellations...